Starlink 5062

operational
NORAD ID: 55637 Int'l Des: 2023-021 Owner: SPXS Country: US Constellation: starlink
LEOCIRCULAR

Starlink 5062について

説明を読み込み中...

リアルタイム位置

3D地球を読み込み中...

次回通過

高度履歴

Altitude vs Time

uPlot chart will show altitude changes over time

軌道要素

1 55637U 23021K 25304.00850280 -.00000996 00000-0 -75678-4 0 9994
2 55637 69.9968 151.5433 0002935 269.4470 90.6353 14.98323099149365
Epoch: Oct 31, 2025 • Age: 17 hours

現在のステータス

高度 594.6 km
速度 7.56 km/s
衛星直下点 -66.04°S, 152.55°E
打ち上げ日 Feb 17, 2023
運用期間 2.6 years
タイプ internet

技術仕様

分類 Payload
質量 305.00 kg
乾燥質量 290.00 kg
総質量 305.00 kg
長さ 0.20 m
直径 2.80 m
スパン 9.00 m
形状 Box + pan
製造者 SPXS
バスタイプ Starlink
フェーズステータス In Orbit
所有者/国 SPXS/US

大規模コンステレーション

Loading constellations...